Powrót do katalogu

CZ-2C R/B

AktywnySSO
NORAD 62078·ROCKET BODY·🇨🇳 China

Wystrzelony Nov 24, 2024 z Jiuquan Satellite Launch Center

Loading…

Następne Przeloty (najbliższe 24 godziny)

TLE

ŚwieżeSource: Space-Track

Epoka: Sep 13, 2026, 23:00 UTC

1 62078U 24218A   26256.95833641  .00004907  00000-0  19348-3 0  9998
2 62078  97.5334 273.0112 0044797  58.9252 301.6370 15.25118662 99986

Śledź CZ-2C R/B w czasie rzeczywistym z AllMySat

Download on the App Store